Home   Weather   Munich   Past weeks

Flag for Germany Past Weather in Munich, Bavaria, Germany — Yesterday and Last 2 Weeks

Now
66 °F

Scattered clouds.


Feels Like: 66 °F
Forecast: 56 / 81 °F
Wind: 13 mph from Southwest

Location: Oberpfaffenhofen

Current Time: Jul 28, 2017 at 7:07:13 pm

Latest Report: Jul 28, 2017 at 6:20 pm


Visibility: N/A

Pressure: 30.07 "Hg (28.28 "Hg at 526m altitude)

Humidity: 68%

Dew Point: 55 °F

Location of MunichLocation

Past Weather in Munich — Graph

°F

Munich Temperature Yesterday

Maximum temperature yesterday: 66 °F (at 6:20 pm)
Minimum temperature yesterday: 54 °F (at 6:50 am)
Average temperature yesterday: 61 °F

High & Low Weather Summary for the Past Weeks

 TemperatureHumidityPressure
High88 °F (Jul 19, 6:20 pm)100% (Jul 21, 6:50 am)30.30 "Hg (Jul 21, 6:50 am)
Low52 °F (Jul 25, 7:20 am)31% (Jul 19, 6:20 pm)29.74 "Hg (Jul 26, 7:20 am)
Average66 °F68%29.99 "Hg
* Reported Jul 13 6:20 pm — Jul 28 6:20 pm, Munich. Weather by CustomWeather, © 2017

Note: Actual official high and low records may vary slightly from our data, if they occured in-between our weather recording intervals... More about our weather records

Advertising

Munich Weather History for the Previous 24 Hours

Scroll right to see more
 ConditionsComfort  
Time TempWeatherWind HumidityBarometerVisibility
6:20 pm
Fri, Jul 28
66 °FScattered clouds.13 mph68%30.07 "HgN/A
5:20 pm64 °FScattered clouds.14 mph68%30.07 "HgN/A
4:50 pm64 °FScattered clouds.15 mph73%30.07 "HgN/A
4:20 pm63 °FScattered clouds.13 mph77%30.07 "HgN/A
3:50 pm63 °FPartly sunny.14 mph73%30.07 "HgN/A
3:20 pm63 °FPartly sunny.13 mph73%30.07 "HgN/A
2:50 pm63 °FBroken clouds.10 mph73%30.07 "HgN/A
2:20 pm63 °FBroken clouds.13 mph77%30.07 "HgN/A
1:50 pm63 °FBroken clouds.10 mph77%30.07 "HgN/A
1:20 pm63 °FBroken clouds.8 mph83%30.04 "HgN/A
12:50 pm63 °FBroken clouds.7 mph77%30.04 "HgN/A
12:20 pm63 °FBroken clouds.6 mph77%30.04 "HgN/A
11:50 am61 °FSprinkles. Broken clouds.7 mph83%30.04 "Hg6 mi
11:20 am61 °FBroken clouds.6 mph83%30.01 "HgN/A
10:50 am61 °FLight rain. Broken clouds.7 mph83%30.01 "HgN/A
10:20 am61 °FBroken clouds.7 mph83%30.01 "HgN/A
9:20 am61 °FPartly sunny.7 mph83%29.98 "HgN/A
8:50 am61 °FBroken clouds.9 mph83%29.98 "HgN/A
8:20 am61 °FPartly sunny.8 mph83%29.98 "HgN/A
7:50 am59 °FBroken clouds.6 mph88%29.95 "HgN/A
7:20 am59 °FPartly sunny.7 mph88%29.95 "HgN/A
6:50 am57 °FSunny.8 mph94%29.95 "Hg10 mi
8:50 pm
Thu, Jul 27
61 °FSunny.7 mph88%29.89 "Hg10 mi
8:20 pm63 °FBroken clouds.5 mph83%29.89 "HgN/A
7:50 pm64 °FBroken clouds.3 mph78%29.89 "HgN/A
7:20 pm66 °FBroken clouds.8 mph73%29.89 "HgN/A
Weather by CustomWeather, © 2017

See weather overviewHow to use our weather pages